RADUGA-1M 2 [+]

Last updated on March 31, 2020, 4:59 a.m. UTC

1 36358U 10002A   20090.83174642 -.00000185  00000-0  00000-0 0  9999
2 36358   0.0227 246.7330 0002372 163.1815 163.1761  1.00271482 27348
UTC
Height (km)
Latitude
Longitude
Inclination
Orbital Period
UTC large
Height (km)
Speed (km/s)
/
Latitude / Longitude
Inclination (degrees)
Orbital Period (minutes)
Azimuth
Elevation
Range (km)
Doppler Factor
iOS Compass Heading
iOS Angle

Next 30 passes for location: Hong Kong

Rise time Rise Azimuth (degrees) Set time Set Azimuth (degrees) Duration Max altitude (degrees)

No matching passes for this satellites